SCP
0 0 0 0 0 0 0 0 0 0 0 0 0 0 0 0 0 0 0 0 0 0 0 0 0 0 0 0 0 0 0 0 0 0 0 0 0 0 0 0 0 0 0 0 0 0 0
-0 -0 0 0 0 0 0 0 0 0 0 0 0 0 0 0 0 0 0 0 0 0 0 0 0 0 0 0 0 0 0 0 0 0 0 0 0 0 0 0 0 0 0 0 0 -0 0
-0 0 0 0 0 0 0 0 0 0 0 0 0 0 0 0 0 0 0 0 0 0 0 0 0 0 0 0 0 0 0 0 0 0 0 0 0 0 0 0 0 0 0 0 -0 -0 0
0 0 0 0 0 0 0 0 0 0 0 0 0 0 0 0 0 0 0 0 0 0 0 0 0 0 0 0 0 0 0 0 0 0 0 0 0 0 0 0 0 0 0 0 0 -0 0
0 0 0 0 0 0 0 0 0 0 0 0 0 0 0 0 0 0 0 0 0 0 0 0 0 0 0 0 0 0 0 0 0 0 0 0 0 0 0 0 0 0 0 0 0 0 0
0 0 0 0 0 0 0 0 0 0 0 0 0 0 0 0 0 0 0 0 0 0 0 0 0 0 0 0 0 0 0 0 0 0 0 0 0 0 0 0 0 0 0 0 0 -0 0
0 0 0 0 0 0 0 0 0 0 0 0 0 0 0 0 0 0 0 0 0 0 0 0 0 0 0 0 0 0 0 0 0 0 0 0 0 0 0 0 0 0 0 0 -0 -0 0
0 0 0 0 0 0 0 0 0 0 0 0 0 0 0 0 0 0 0 0 0 0 0 0 0 0 0 0 0 0 0 0 0 0 0 0 0 0 0 0 0 0 0 -0 -0 -0 0
0 0 0 0 0 0 0 0 0 0 0 0 0 0 0 0 0 0 0 0 0 0 0 0 0 0 0 0 0 0 0 0 0 0 0 0 0 0 0 0 0 0 -0 0 0 0 -0
0 0 0 0 0 0 0 0 0 0 0 0 0 0 0 0 0 0 0 0 0 0 0 -0 0 0 0 0 0 0 0 0 0 0 0 0 0 0 0 0 0 -0 0 0 0 0 -0
0 0 0 0 0 0 0 0 0 0 0 0 0 0 0 0 0 0 0 0 0 0 0 0 0 0 0 0 0 0 0 0 0 0 0 0 0 0 0 0 0 -0 0 0 0 -0 -0
0 0 0 0 0 0 0 0 0 0 0 0 0 0 0 0 0 0 0 0 0 0 0 0 0 0 0 0 0 0 0 0 0 0 0 0 0 0 0 0 0 0 0 0 0 0 -0
-0 -0 -0 0 0 0 0 0 0 0 0 0 0 0 0 0 0 0 0 0 0 0 0 0 0 0 0 0 0 0 0 0 0 0 0 0 -0 0 0 0 0 0 0 0 0 0 -0
-0 0 0 0 0 0 0 0 0 0 0 0 0 0 0 0 0 0 0 0 0 0 0 0 0 0 0 0 0 0 0 0 0 0 0 0 0 -0 0 -0 0 -0 -0 0 0 -0 -0
0 0 0 0 0 0 0 0 0 0 0 0 0 0 0 0 0 0 0 0 0 0 0 0 -0 0 0 0 0 0 0 0 0 0 0 0 0 0 0 0 0 -0 -0 -0 0 -0 0
0 0 0 0 0 0 0 0 0 0 0 0 0 0 0 0 0 0 0 0 0 0 0 0 -0 0 0 0 0 0 0 -0 0 0 0 0 0 0 0 0 -0 -0 0 0 0 0 0
0 0 0 0 0 0 -0 0 0 0 0 0 0 0 0 0 0 0 0 0 0 0 0 0 0 0 -0 0 0 0 0 0 0 0 0 0 0 0 0 0 -0 0 0 0 0 0 0
0 0 0 0 0 0 0 0 0 0 0 0 0 0 -0 0 0 0 0 0 0 0 0 0 -0 -0 0 -0 0 0 0 0 0 0 0 0 0 0 0 0 0 0 0 0 0 0 0
0 0 0 0 0 0 0 0 0 0 0 0 0 0 0 0 0 0 0 0 -0 -0 0 0 -0 -0 0 -0 0 -0 0 0 0 0 0 0 0 0 -0 0 0 0 0 0 0 0 0
0 0 0 0 0 0 0 0 0 0 0 0 0 0 0 -0 0 -0 -0 0 0 0 0 0 -0 -0 -0 -0 -0 0 0 0 0 0 0 0 0 0 0 0 0 0 0 0 0 0 0
0 0 0 0 0 0 0 0 0 0 0 0 0 0 -0 0 -0 -0 -0 0 0 0 -0 0 -0 -0 -0 -0 -0 0 0 0 0 0 0 0 0 0 0 0 0 0 0 0 0 0 0
0 0 0 0 0 0 0 0 0 0 0 0 0 0 0 0 -0 -0 -0 0 -0 -0 -0 0 0 0 0 0 -0 -0 -0 0 0 0 0 0 0 0 0 0 0 0 0 0 0 0 0
0 0 0 0 0 0 0 0 0 0 0 0 0 0 0 0 0 -0 -0 0 0 -0 -0 0 0 0 0 0 -0 -0 -0 -0 0 0 0 0 0 0 0 0 0 0 0 0 0 0 0
0 0 0 0 0 0 0 0 0 0 0 0 0 0 0 0 0 -0 -0 0 -0 -0 -0 0 0 -0 -0 -0 -0 -0 -0 -0 0 0 0 0 0 0 0 0 0 0 0 0 0 0 0
0 0 0 0 0 0 0 0 0 0 0 0 0 0 0 0 0 -0 -0 -0 -0 -0 0 0 -0 0 0 -0 -0 -0 -0 -0 0 0 0 0 0 0 0 0 0 0 0 0 0 0 0
0 0 0 0 0 0 0 0 0 0 0 0 0 0 0 0 0 0 0 0 0 -0 0 0 -0 0 -0 -0 -0 -0 -0 0 0 0 0 0 0 0 0 0 0 0 0 0 0 0 0
0 0 0 0 0 0 0 0 0 0 0 0 0 0 0 0 0 0 0 0 0 0 0 0 0 0 0 -0 -0 -0 -0 -0 0 0 0 0 0 0 0 0 0 0 0 0 0 0 0
0 0 0 0 0 0 0 0 0 0 0 0 0 0 0 0 0 0 0 0 0 0 0 0 0 0 0 0 0 -0 -0 -0 -0 -0 0 0 0 0 0 0 0 0 0 0 0 0 0
0 0 0 0 0 0 0 0 0 0 0 0 0 0 0 0 0 0 0 0 0 0 0 -0 -0 -0 -0 0 0 0 -0 -0 -0 -0 0 0 0 0 0 0 0 0 0 0 0 0 0
Wind_Speed_500mb
40 40 38 36 36 36 34 33 34 34 35 38 39 37 38 41 45 49 52 52 52 54 53 52 52 50 43 37 54 22 31 16 9 18 65 62 52 57 29 26 33 26 50 62 62 61 71
32 34 35 37 38 37 38 40 39 37 37 37 38 40 41 42 43 44 47 50 50 49 47 47 51 50 44 38 73 73 67 61 41 27 39 64 52 61 17 50 33 35 47 55 59 63 71
28 29 32 33 32 36 36 37 38 40 42 41 39 40 42 43 41 41 44 48 47 42 44 40 40 41 54 86 52 39 50 74 74 61 52 53 72 33 30 17 60 49 43 40 44 45 41
32 33 31 28 29 34 37 39 40 41 41 43 43 43 43 45 48 48 46 45 48 47 36 33 32 36 39 67 59 79 66 53 50 44 58 49 46 67 64 32 30 11 8 17 22 31 58
40 40 40 39 37 38 39 41 42 43 44 43 44 46 45 46 49 52 50 44 42 49 29 28 30 31 36 32 58 76 78 79 55 56 51 48 43 49 21 32 22 10 25 34 26 25 25
44 44 45 44 43 43 42 41 43 45 46 47 46 46 46 44 46 49 55 57 44 33 29 20 24 12 43 36 50 54 58 77 71 60 52 49 30 15 13 10 26 23 22 10 33 39 16
47 48 47 44 43 43 42 43 45 47 48 48 51 50 48 45 45 45 48 48 9 7 20 31 32 44 7 12 29 29 34 62 52 34 19 51 22 32 52 45 25 15 14 18 39 49 11
50 49 50 49 49 48 47 48 48 49 48 47 49 49 53 47 42 34 29 16 21 21 27 50 85 73 77 43 19 39 27 38 38 35 30 15 50 48 33 31 26 24 28 35 41 45 12
52 49 50 51 46 46 50 50 49 49 50 50 49 43 44 47 48 22 24 24 30 49 16 35 61 70 79 62 34 66 38 44 18 33 42 44 15 38 34 30 26 32 35 33 36 41 32
54 51 51 52 48 46 52 49 48 51 50 49 46 47 41 40 36 17 31 16 28 11 8 15 21 30 59 49 29 89 43 37 17 49 45 36 43 33 43 36 33 39 34 39 31 24 17
57 56 54 51 48 47 48 49 50 52 52 49 45 43 40 31 40 38 26 27 24 16 8 9 10 14 36 63 32 52 91 55 40 30 36 34 41 49 42 52 42 37 35 35 39 27 17
54 52 52 52 50 50 48 49 54 55 51 46 45 41 35 35 36 21 25 21 11 4 17 14 14 10 8 55 35 14 70 54 43 34 37 53 18 41 48 35 45 45 23 23 24 18 22
53 54 54 53 50 52 51 51 55 54 51 48 46 39 32 34 38 18 23 19 2 11 16 2 24 42 35 27 41 16 42 49 26 34 47 28 49 33 30 42 40 29 19 8 5 7 22
55 55 55 55 55 55 50 52 54 58 51 55 50 42 36 35 25 17 9 3 17 15 29 39 41 44 12 25 13 45 19 46 46 31 24 33 23 54 43 40 35 39 28 16 14 11 8
57 58 58 57 56 54 51 56 57 54 52 55 48 38 41 15 16 18 3 12 8 6 19 35 39 20 25 45 27 11 44 48 45 41 24 32 31 16 42 39 39 27 29 41 9 7 3
58 56 56 55 56 55 57 57 59 47 55 49 42 35 17 2 16 22 3 12 7 21 36 33 21 20 36 40 27 32 6 28 35 47 16 9 11 33 31 30 47 51 11 14 4 20 13
55 56 54 56 56 61 61 56 52 51 54 38 27 19 11 6 22 9 5 10 14 29 34 18 26 30 27 30 23 16 16 14 25 24 42 19 6 9 32 42 53 22 20 11 9 12 17
53 55 54 54 59 58 59 56 56 51 47 32 18 7 14 15 4 2 7 5 16 32 43 30 18 23 20 12 21 15 16 19 56 41 19 49 9 22 43 9 33 28 29 21 17 10 4
52 55 56 57 60 60 58 56 51 46 44 34 26 13 11 15 3 4 8 14 19 33 30 12 14 13 17 15 9 14 23 34 44 39 17 13 32 18 16 4 16 32 29 17 10 9 17
53 57 58 59 59 58 53 52 48 42 39 37 11 7 7 9 1 6 6 14 8 17 20 22 5 9 16 22 20 17 28 24 69 43 40 21 13 57 31 22 11 12 36 28 17 10 12
55 58 58 59 57 55 52 53 46 41 38 32 6 6 8 6 6 11 8 10 22 15 17 28 5 10 14 8 18 30 26 38 40 23 30 15 26 42 61 37 9 16 37 37 34 26 22
58 58 59 60 59 57 52 50 44 41 40 20 10 8 12 19 24 8 8 8 29 23 14 17 14 20 23 15 23 24 18 24 21 18 30 19 12 31 46 59 55 36 30 45 33 17 16
59 60 61 63 61 53 48 48 43 37 37 14 14 17 18 13 8 5 5 15 20 26 25 19 24 11 20 25 24 32 32 30 43 34 35 9 9 6 43 38 40 39 42 38 37 30 26
59 60 61 62 62 54 47 43 40 37 34 27 19 18 6 9 5 6 24 29 32 22 13 29 35 6 10 41 31 30 39 43 42 44 39 17 9 7 19 23 18 18 28 30 44 37 24
59 60 60 61 61 58 49 41 35 33 30 32 21 15 7 7 17 28 17 18 28 33 22 20 23 43 49 24 6 11 7 9 26 17 25 36 15 9 9 31 9 8 11 23 19 15 19
57 61 60 59 59 61 57 44 34 28 30 31 25 17 21 7 10 19 19 19 8 8 11 15 48 49 21 7 7 7 3 8 11 27 34 31 33 8 7 15 14 7 10 23 17 24 21
56 59 60 59 60 62 63 47 37 30 26 31 31 20 19 11 28 21 14 12 8 8 7 15 23 19 17 1 1 1 4 9 4 16 15 8 8 23 12 8 3 25 38 13 24 9 22
59 59 60 60 66 66 64 50 36 31 26 29 32 15 22 15 54 19 13 35 31 12 5 14 18 6 6 6 3 6 6 9 5 7 9 8 9 5 8 3 9 55 17 15 15 49 48
63 59 60 65 70 72 62 49 38 29 29 24 38 25 27 33 53 64 38 26 32 32 20 6 6 6 6 5 4 5 3 5 3 5 3 3 9 7 10 1 14 22 22 25 36 38 59
Wind_Direction_500mb
16 14 13 11 9 6 1 355 346 336 325 313 306 303 298 295 291 286 280 274 273 271 270 273 271 267 263 241 233 199 211 247 304 209 208 217 214 222 220 239 243 234 241 246 254 263 266
9 5 1 358 356 354 353 350 348 345 343 342 337 321 310 301 294 288 284 283 272 269 271 269 268 266 261 246 252 248 237 254 254 255 228 219 221 223 273 237 235 238 249 253 259 262 266
3 357 356 352 351 342 345 339 341 339 336 334 332 334 330 325 317 303 291 282 280 269 265 268 270 274 258 248 247 247 244 239 239 247 236 236 234 219 230 270 256 257 257 263 260 254 258
360 356 350 345 339 332 330 332 334 334 335 333 329 328 326 327 323 316 312 297 276 269 270 265 275 271 260 262 264 251 234 231 227 224 228 238 252 232 243 261 296 301 268 253 245 259 262
355 351 348 345 342 334 331 330 330 330 329 327 328 329 327 325 322 322 315 309 300 272 260 253 263 248 276 258 247 253 239 232 224 224 236 221 237 218 229 228 266 229 257 260 278 245 260
346 344 340 338 339 336 333 332 330 329 327 324 322 319 321 323 323 324 319 317 307 254 243 227 235 277 250 241 247 249 244 225 226 220 229 222 214 183 227 155 218 218 237 225 255 257 257
344 343 341 340 336 333 332 330 328 327 326 324 324 321 316 313 317 327 324 335 355 358 224 209 206 205 117 268 236 246 240 213 209 229 200 199 209 213 217 218 226 238 236 247 262 268 280
345 342 338 335 332 332 330 330 329 329 327 323 320 318 318 313 313 321 318 329 14 327 291 261 251 243 243 244 304 237 212 175 185 212 202 198 221 218 223 224 218 230 242 248 271 269 260
347 344 343 338 334 331 326 330 330 328 327 326 323 319 314 311 313 308 291 303 341 332 268 276 244 240 231 250 239 256 206 191 192 197 207 209 229 203 210 221 225 228 231 245 244 277 278
349 345 343 340 338 337 334 337 334 332 328 326 322 319 317 310 309 288 300 300 310 7 275 268 212 245 211 223 255 236 219 197 207 205 208 233 220 202 211 221 214 235 227 241 251 255 257
347 346 344 345 341 340 340 337 333 331 326 324 322 320 313 299 293 294 310 280 323 150 300 228 215 211 203 186 137 212 219 210 204 180 187 211 196 217 224 217 216 230 224 235 246 248 261
352 353 350 347 344 343 341 336 334 333 329 324 322 317 310 290 278 298 306 293 343 89 251 302 85 343 189 208 214 159 190 199 209 204 211 218 198 210 221 221 220 233 241 240 257 244 254
356 352 349 347 346 343 341 341 339 336 333 326 320 316 300 283 270 303 296 320 227 215 311 195 344 340 308 202 220 229 185 189 191 188 216 211 223 237 203 216 230 216 203 250 288 197 240
355 353 349 348 345 344 340 338 337 335 332 330 321 315 302 277 270 273 346 248 236 239 262 312 347 328 325 26 274 231 190 197 208 200 180 209 224 211 217 211 212 221 212 202 184 221 234
355 354 354 354 350 348 344 340 340 338 334 330 325 322 308 302 244 174 200 224 235 315 306 348 346 336 347 358 343 239 223 211 202 203 185 195 227 243 206 211 206 222 211 224 215 320 130
358 0 360 358 355 353 345 343 343 340 340 339 334 328 343 338 170 183 154 252 300 335 324 327 340 350 342 337 336 350 241 228 224 211 196 231 219 232 206 198 231 220 141 229 305 205 213
2 2 0 359 355 355 352 347 344 341 341 343 346 326 351 162 161 161 223 243 303 281 311 331 325 315 329 322 318 312 292 30 10 236 218 222 126 306 208 203 209 201 200 198 178 166 192
6 5 0 358 353 350 353 351 348 343 346 347 347 325 11 178 79 159 242 216 276 283 296 291 277 306 315 307 297 293 269 285 358 349 266 212 173 239 241 293 202 210 204 182 215 231 167
6 4 1 359 356 353 352 350 351 351 354 347 328 281 347 245 183 236 250 262 285 278 275 271 295 299 289 276 273 300 303 329 329 344 350 252 218 249 322 229 241 203 201 179 143 123 188
2 3 0 359 358 358 358 353 353 354 358 351 329 325 351 261 293 289 263 276 270 297 309 289 248 289 291 262 248 270 296 315 335 314 316 310 228 208 221 221 167 202 201 188 149 148 164
0 359 358 358 359 360 356 354 352 352 349 350 337 282 354 310 314 292 282 269 288 293 253 278 240 221 271 291 283 264 295 318 318 295 350 3 222 206 222 234 248 220 213 193 189 182 174
1 0 358 356 356 358 355 353 348 347 353 1 326 328 324 291 286 294 289 317 300 308 273 299 235 267 289 259 279 281 275 309 293 307 348 336 292 203 221 226 239 249 229 197 193 177 142
357 357 356 353 354 358 355 353 353 347 352 356 317 315 314 287 303 332 254 326 297 307 276 281 305 288 282 264 231 235 225 249 258 274 294 273 327 291 223 219 232 236 235 209 184 177 152
352 353 353 353 351 355 352 353 356 351 345 341 321 315 300 283 295 242 303 304 307 319 287 296 324 310 276 307 292 247 225 240 253 257 234 238 302 280 221 209 215 228 208 203 198 183 186
349 349 350 351 349 349 350 349 346 347 346 340 329 296 251 276 285 296 309 319 319 321 303 295 302 305 312 309 254 253 221 287 284 278 249 209 208 274 194 204 240 215 218 181 166 231 178
350 346 347 349 347 345 344 343 337 331 337 336 343 314 272 271 241 287 303 305 311 305 311 273 315 320 305 191 237 248 32 24 304 315 327 181 201 208 322 151 197 169 285 193 154 222 192
352 347 346 347 347 344 340 337 332 327 316 316 322 316 304 251 283 293 293 285 265 263 263 290 335 327 359 174 236 154 126 150 308 328 340 298 175 220 234 257 76 344 318 114 166 273 313
350 350 347 347 345 342 340 336 331 324 317 304 309 311 303 268 296 283 289 285 286 239 228 300 337 347 342 335 219 176 167 172 182 229 281 310 303 5 317 172 67 349 344 60 304 320 346
344 349 347 346 345 342 340 335 330 326 314 301 299 317 311 283 279 307 304 290 273 277 265 273 300 277 225 302 332 307 191 147 158 242 122 216 6 304 30 216 344 336 52 5 349 350 4
Wind_Speed_850mb
40 40 38 36 36 36 34 33 34 34 35 38 39 37 38 41 45 49 52 52 52 54 53 52 52 50 43 37 54 22 31 16 9 18 65 62 52 57 29 26 33 26 50 62 62 61 71
32 34 35 37 38 37 38 40 39 37 37 37 38 40 41 42 43 44 47 50 50 49 47 47 51 50 44 38 73 73 67 61 41 27 39 64 52 61 17 50 33 35 47 55 59 63 71
28 29 32 33 32 36 36 37 38 40 42 41 39 40 42 43 41 41 44 48 47 42 44 40 40 41 54 86 52 39 50 74 74 61 52 53 72 33 30 17 60 49 43 40 44 45 41
32 33 31 28 29 34 37 39 40 41 41 43 43 43 43 45 48 48 46 45 48 47 36 33 32 36 39 67 59 79 66 53 50 44 58 49 46 67 64 32 30 11 8 17 22 31 58
40 40 40 39 37 38 39 41 42 43 44 43 44 46 45 46 49 52 50 44 42 49 29 28 30 31 36 32 58 76 78 79 55 56 51 48 43 49 21 32 22 10 25 34 26 25 25
44 44 45 44 43 43 42 41 43 45 46 47 46 46 46 44 46 49 55 57 44 33 29 20 24 12 43 36 50 54 58 77 71 60 52 49 30 15 13 10 26 23 22 10 33 39 16
47 48 47 44 43 43 42 43 45 47 48 48 51 50 48 45 45 45 48 48 9 7 20 31 32 44 7 12 29 29 34 62 52 34 19 51 22 32 52 45 25 15 14 18 39 49 11
50 49 50 49 49 48 47 48 48 49 48 47 49 49 53 47 42 34 29 16 21 21 27 50 85 73 77 43 19 39 27 38 38 35 30 15 50 48 33 31 26 24 28 35 41 45 12
52 49 50 51 46 46 50 50 49 49 50 50 49 43 44 47 48 22 24 24 30 49 16 35 61 70 79 62 34 66 38 44 18 33 42 44 15 38 34 30 26 32 35 33 36 41 32
54 51 51 52 48 46 52 49 48 51 50 49 46 47 41 40 36 17 31 16 28 11 8 15 21 30 59 49 29 89 43 37 17 49 45 36 43 33 43 36 33 39 34 39 31 24 17
57 56 54 51 48 47 48 49 50 52 52 49 45 43 40 31 40 38 26 27 24 16 8 9 10 14 36 63 32 52 91 55 40 30 36 34 41 49 42 52 42 37 35 35 39 27 17
54 52 52 52 50 50 48 49 54 55 51 46 45 41 35 35 36 21 25 21 11 4 17 14 14 10 8 55 35 14 70 54 43 34 37 53 18 41 48 35 45 45 23 23 24 18 22
53 54 54 53 50 52 51 51 55 54 51 48 46 39 32 34 38 18 23 19 2 11 16 2 24 42 35 27 41 16 42 49 26 34 47 28 49 33 30 42 40 29 19 8 5 7 22
55 55 55 55 55 55 50 52 54 58 51 55 50 42 36 35 25 17 9 3 17 15 29 39 41 44 12 25 13 45 19 46 46 31 24 33 23 54 43 40 35 39 28 16 14 11 8
57 58 58 57 56 54 51 56 57 54 52 55 48 38 41 15 16 18 3 12 8 6 19 35 39 20 25 45 27 11 44 48 45 41 24 32 31 16 42 39 39 27 29 41 9 7 3
58 56 56 55 56 55 57 57 59 47 55 49 42 35 17 2 16 22 3 12 7 21 36 33 21 20 36 40 27 32 6 28 35 47 16 9 11 33 31 30 47 51 11 14 4 20 13
55 56 54 56 56 61 61 56 52 51 54 38 27 19 11 6 22 9 5 10 14 29 34 18 26 30 27 30 23 16 16 14 25 24 42 19 6 9 32 42 53 22 20 11 9 12 17
53 55 54 54 59 58 59 56 56 51 47 32 18 7 14 15 4 2 7 5 16 32 43 30 18 23 20 12 21 15 16 19 56 41 19 49 9 22 43 9 33 28 29 21 17 10 4
52 55 56 57 60 60 58 56 51 46 44 34 26 13 11 15 3 4 8 14 19 33 30 12 14 13 17 15 9 14 23 34 44 39 17 13 32 18 16 4 16 32 29 17 10 9 17
53 57 58 59 59 58 53 52 48 42 39 37 11 7 7 9 1 6 6 14 8 17 20 22 5 9 16 22 20 17 28 24 69 43 40 21 13 57 31 22 11 12 36 28 17 10 12
55 58 58 59 57 55 52 53 46 41 38 32 6 6 8 6 6 11 8 10 22 15 17 28 5 10 14 8 18 30 26 38 40 23 30 15 26 42 61 37 9 16 37 37 34 26 22
58 58 59 60 59 57 52 50 44 41 40 20 10 8 12 19 24 8 8 8 29 23 14 17 14 20 23 15 23 24 18 24 21 18 30 19 12 31 46 59 55 36 30 45 33 17 16
59 60 61 63 61 53 48 48 43 37 37 14 14 17 18 13 8 5 5 15 20 26 25 19 24 11 20 25 24 32 32 30 43 34 35 9 9 6 43 38 40 39 42 38 37 30 26
59 60 61 62 62 54 47 43 40 37 34 27 19 18 6 9 5 6 24 29 32 22 13 29 35 6 10 41 31 30 39 43 42 44 39 17 9 7 19 23 18 18 28 30 44 37 24
59 60 60 61 61 58 49 41 35 33 30 32 21 15 7 7 17 28 17 18 28 33 22 20 23 43 49 24 6 11 7 9 26 17 25 36 15 9 9 31 9 8 11 23 19 15 19
57 61 60 59 59 61 57 44 34 28 30 31 25 17 21 7 10 19 19 19 8 8 11 15 48 49 21 7 7 7 3 8 11 27 34 31 33 8 7 15 14 7 10 23 17 24 21
56 59 60 59 60 62 63 47 37 30 26 31 31 20 19 11 28 21 14 12 8 8 7 15 23 19 17 1 1 1 4 9 4 16 15 8 8 23 12 8 3 25 38 13 24 9 22
59 59 60 60 66 66 64 50 36 31 26 29 32 15 22 15 54 19 13 35 31 12 5 14 18 6 6 6 3 6 6 9 5 7 9 8 9 5 8 3 9 55 17 15 15 49 48
63 59 60 65 70 72 62 49 38 29 29 24 38 25 27 33 53 64 38 26 32 32 20 6 6 6 6 5 4 5 3 5 3 5 3 3 9 7 10 1 14 22 22 25 36 38 59
Wind_Direction_850mb
16 14 13 11 9 6 1 355 346 336 325 313 306 303 298 295 291 286 280 274 273 271 270 273 271 267 263 241 233 199 211 247 304 209 208 217 214 222 220 239 243 234 241 246 254 263 266
9 5 1 358 356 354 353 350 348 345 343 342 337 321 310 301 294 288 284 283 272 269 271 269 268 266 261 246 252 248 237 254 254 255 228 219 221 223 273 237 235 238 249 253 259 262 266
3 357 356 352 351 342 345 339 341 339 336 334 332 334 330 325 317 303 291 282 280 269 265 268 270 274 258 248 247 247 244 239 239 247 236 236 234 219 230 270 256 257 257 263 260 254 258
360 356 350 345 339 332 330 332 334 334 335 333 329 328 326 327 323 316 312 297 276 269 270 265 275 271 260 262 264 251 234 231 227 224 228 238 252 232 243 261 296 301 268 253 245 259 262
355 351 348 345 342 334 331 330 330 330 329 327 328 329 327 325 322 322 315 309 300 272 260 253 263 248 276 258 247 253 239 232 224 224 236 221 237 218 229 228 266 229 257 260 278 245 260
346 344 340 338 339 336 333 332 330 329 327 324 322 319 321 323 323 324 319 317 307 254 243 227 235 277 250 241 247 249 244 225 226 220 229 222 214 183 227 155 218 218 237 225 255 257 257
344 343 341 340 336 333 332 330 328 327 326 324 324 321 316 313 317 327 324 335 355 358 224 209 206 205 117 268 236 246 240 213 209 229 200 199 209 213 217 218 226 238 236 247 262 268 280
345 342 338 335 332 332 330 330 329 329 327 323 320 318 318 313 313 321 318 329 14 327 291 261 251 243 243 244 304 237 212 175 185 212 202 198 221 218 223 224 218 230 242 248 271 269 260
347 344 343 338 334 331 326 330 330 328 327 326 323 319 314 311 313 308 291 303 341 332 268 276 244 240 231 250 239 256 206 191 192 197 207 209 229 203 210 221 225 228 231 245 244 277 278
349 345 343 340 338 337 334 337 334 332 328 326 322 319 317 310 309 288 300 300 310 7 275 268 212 245 211 223 255 236 219 197 207 205 208 233 220 202 211 221 214 235 227 241 251 255 257
347 346 344 345 341 340 340 337 333 331 326 324 322 320 313 299 293 294 310 280 323 150 300 228 215 211 203 186 137 212 219 210 204 180 187 211 196 217 224 217 216 230 224 235 246 248 261
352 353 350 347 344 343 341 336 334 333 329 324 322 317 310 290 278 298 306 293 343 89 251 302 85 343 189 208 214 159 190 199 209 204 211 218 198 210 221 221 220 233 241 240 257 244 254
356 352 349 347 346 343 341 341 339 336 333 326 320 316 300 283 270 303 296 320 227 215 311 195 344 340 308 202 220 229 185 189 191 188 216 211 223 237 203 216 230 216 203 250 288 197 240
355 353 349 348 345 344 340 338 337 335 332 330 321 315 302 277 270 273 346 248 236 239 262 312 347 328 325 26 274 231 190 197 208 200 180 209 224 211 217 211 212 221 212 202 184 221 234
355 354 354 354 350 348 344 340 340 338 334 330 325 322 308 302 244 174 200 224 235 315 306 348 346 336 347 358 343 239 223 211 202 203 185 195 227 243 206 211 206 222 211 224 215 320 130
358 0 360 358 355 353 345 343 343 340 340 339 334 328 343 338 170 183 154 252 300 335 324 327 340 350 342 337 336 350 241 228 224 211 196 231 219 232 206 198 231 220 141 229 305 205 213
2 2 0 359 355 355 352 347 344 341 341 343 346 326 351 162 161 161 223 243 303 281 311 331 325 315 329 322 318 312 292 30 10 236 218 222 126 306 208 203 209 201 200 198 178 166 192
6 5 0 358 353 350 353 351 348 343 346 347 347 325 11 178 79 159 242 216 276 283 296 291 277 306 315 307 297 293 269 285 358 349 266 212 173 239 241 293 202 210 204 182 215 231 167
6 4 1 359 356 353 352 350 351 351 354 347 328 281 347 245 183 236 250 262 285 278 275 271 295 299 289 276 273 300 303 329 329 344 350 252 218 249 322 229 241 203 201 179 143 123 188
2 3 0 359 358 358 358 353 353 354 358 351 329 325 351 261 293 289 263 276 270 297 309 289 248 289 291 262 248 270 296 315 335 314 316 310 228 208 221 221 167 202 201 188 149 148 164
0 359 358 358 359 360 356 354 352 352 349 350 337 282 354 310 314 292 282 269 288 293 253 278 240 221 271 291 283 264 295 318 318 295 350 3 222 206 222 234 248 220 213 193 189 182 174
1 0 358 356 356 358 355 353 348 347 353 1 326 328 324 291 286 294 289 317 300 308 273 299 235 267 289 259 279 281 275 309 293 307 348 336 292 203 221 226 239 249 229 197 193 177 142
357 357 356 353 354 358 355 353 353 347 352 356 317 315 314 287 303 332 254 326 297 307 276 281 305 288 282 264 231 235 225 249 258 274 294 273 327 291 223 219 232 236 235 209 184 177 152
352 353 353 353 351 355 352 353 356 351 345 341 321 315 300 283 295 242 303 304 307 319 287 296 324 310 276 307 292 247 225 240 253 257 234 238 302 280 221 209 215 228 208 203 198 183 186
349 349 350 351 349 349 350 349 346 347 346 340 329 296 251 276 285 296 309 319 319 321 303 295 302 305 312 309 254 253 221 287 284 278 249 209 208 274 194 204 240 215 218 181 166 231 178
350 346 347 349 347 345 344 343 337 331 337 336 343 314 272 271 241 287 303 305 311 305 311 273 315 320 305 191 237 248 32 24 304 315 327 181 201 208 322 151 197 169 285 193 154 222 192
352 347 346 347 347 344 340 337 332 327 316 316 322 316 304 251 283 293 293 285 265 263 263 290 335 327 359 174 236 154 126 150 308 328 340 298 175 220 234 257 76 344 318 114 166 273 313
350 350 347 347 345 342 340 336 331 324 317 304 309 311 303 268 296 283 289 285 286 239 228 300 337 347 342 335 219 176 167 172 182 229 281 310 303 5 317 172 67 349 344 60 304 320 346
344 349 347 346 345 342 340 335 330 326 314 301 299 317 311 283 279 307 304 290 273 277 265 273 300 277 225 302 332 307 191 147 158 242 122 216 6 304 30 216 344 336 52 5 349 350 4